When you browse on this site, cookies collect data to enhance your experience and personalize the content and advertising you see.
Visit our Privacy Policy to learn more. By continuing to use the site, you agree to this use of cookies and data.
  • In United Kingdom
  • List of Countries
  • For 7 days
  • Water Temperature
  • Satellite Maps
  • Weather Map
  • Weather Widgets
  • user-avatar
    Login

    Hourly Weather Dromore

    Today, 27 June, Thursday

    Time Temperature Precipitation Wind Pressure Humidity
    00:00 +10°C° 0 mm 2 mps 763 mmHg 91%
    01:00 +9°C° 0 mm 2 mps 763 mmHg 91%
    02:00 +9°C° 0 mm 2 mps 763 mmHg 90%
    03:00 +10°C° 0 mm 1 mps 763 mmHg 90%
    04:00 +10°C° 0 mm 2 mps 763 mmHg 90%
    05:00 +12°C° 0 mm 2 mps 763 mmHg 90%
    06:00 +13°C° 0 mm 2 mps 763 mmHg 90%
    07:00 +15°C° 0 mm 2 mps 763 mmHg 85%
    08:00 +16°C° 0 mm 3 mps 763 mmHg 81%
    09:00 +18°C° 0 mm 3 mps 763 mmHg 76%
    10:00 +18°C° 0 mm 3 mps 763 mmHg 73%
    11:00 +19°C° 0 mm 3 mps 763 mmHg 70%
    12:00 +19°C° 0 mm 4 mps 763 mmHg 67%
    13:00 +20°C° 0 mm 4 mps 762 mmHg 67%
    14:00 +20°C° 0 mm 4 mps 762 mmHg 67%
    15:00 +20°C° 0 mm 4 mps 762 mmHg 67%
    16:00 +20°C° 0 mm 4 mps 761 mmHg 69%
    17:00 +19°C° 0 mm 4 mps 761 mmHg 72%
    18:00 +19°C° 0 mm 4 mps 760 mmHg 75%
    19:00 +18°C° 0 mm 4 mps 760 mmHg 77%
    20:00 +17°C° 0 mm 4 mps 760 mmHg 80%
    21:00 +14°C° 0 mm 3 mps 760 mmHg 83%
    22:00 +15°C° 0 mm 4 mps 760 mmHg 82%
    23:00 +15°C° 0 mm 5 mps 760 mmHg 82%

    Tomorrow, 28 June, Friday

    Time Temperature Precipitation Wind Pressure Humidity
    00:00 +15°C° 0 mm 5 mps 760 mmHg 81%
    01:00 +14°C° 0 mm 5 mps 760 mmHg 82%
    02:00 +13°C° 0 mm 5 mps 759 mmHg 83%
    03:00 +12°C° 0 mm 5 mps 759 mmHg 83%
    04:00 +13°C° 0 mm 5 mps 759 mmHg 84%
    05:00 +13°C° 0 mm 5 mps 758 mmHg 84%
    06:00 +13°C° 0 mm 5 mps 758 mmHg 84%
    07:00 +14°C° 0 mm 5 mps 758 mmHg 81%
    08:00 +15°C° 0 mm 6 mps 758 mmHg 79%
    09:00 +16°C° 0 mm 6 mps 758 mmHg 76%
    10:00 +16°C° 0 mm 6 mps 757 mmHg 75%
    11:00 +17°C° 0 mm 6 mps 757 mmHg 74%
    12:00 +17°C° 0 mm 6 mps 756 mmHg 72%
    13:00 +19°C° 0 mm 6 mps 756 mmHg 72%
    14:00 +19°C° 0 mm 6 mps 756 mmHg 72%
    15:00 +20°C° 0 mm 5 mps 755 mmHg 72%
    16:00 +20°C° 0 mm 5 mps 755 mmHg 75%
    17:00 +19°C° 0 mm 4 mps 754 mmHg 78%
    18:00 +19°C° 0 mm 4 mps 754 mmHg 81%
    19:00 +18°C° 0 mm 3 mps 754 mmHg 85%
    20:00 +17°C° 0 mm 3 mps 753 mmHg 88%
    21:00 +16°C° 0 mm 3 mps 753 mmHg 92%
    22:00 +16°C° 0 mm 3 mps 753 mmHg 92%
    23:00 +16°C° 0 mm 3 mps 752 mmHg 92%

    Day after tomorrow, 29 June, Saturday

    Time Temperature Precipitation Wind Pressure Humidity
    00:00 +16°C° 0 mm 3 mps 752 mmHg 92%
    01:00 +16°C° 0 mm 3 mps 752 mmHg 92%
    02:00 +17°C° 0 mm 3 mps 751 mmHg 91%
    03:00 +17°C° 0 mm 3 mps 751 mmHg 90%
    04:00 +17°C° 0.1 mm 3 mps 751 mmHg 91%
    05:00 +17°C° 0.1 mm 3 mps 751 mmHg 93%
    06:00 +16°C° 0.1 mm 2 mps 750 mmHg 95%
    07:00 +17°C° 0.3 mm 2 mps 750 mmHg 94%
    08:00 +18°C° 0.3 mm 2 mps 750 mmHg 93%
    09:00 +18°C° 0.3 mm 2 mps 750 mmHg 92%
    10:00 +19°C° 0.2 mm 2 mps 750 mmHg 88%
    11:00 +20°C° 0.2 mm 2 mps 749 mmHg 84%
    12:00 +20°C° 0.2 mm 2 mps 749 mmHg 80%
    13:00 +21°C° 0 mm 3 mps 749 mmHg 78%
    14:00 +21°C° 0 mm 3 mps 748 mmHg 77%
    15:00 +21°C° 0 mm 4 mps 748 mmHg 76%
    16:00 +20°C° 0.4 mm 4 mps 747 mmHg 80%
    17:00 +19°C° 0.4 mm 5 mps 747 mmHg 83%
    18:00 +19°C° 0.4 mm 5 mps 747 mmHg 87%
    19:00 +17°C° 0.2 mm 4 mps 747 mmHg 89%
    20:00 +16°C° 0.2 mm 3 mps 747 mmHg 92%
    21:00 +15°C° 0.2 mm 2 mps 747 mmHg 94%
    22:00 +14°C° 0.1 mm 2 mps 747 mmHg 95%
    23:00 +13°C° 0.1 mm 3 mps 747 mmHg 95%

    30 June, Sunday

    Time Temperature Precipitation Wind Pressure Humidity
    00:00 +13°C° 0.1 mm 3 mps 746 mmHg 96%
    01:00 +13°C° 0 mm 4 mps 746 mmHg 95%
    02:00 +13°C° 0 mm 4 mps 746 mmHg 95%
    03:00 +13°C° 0 mm 4 mps 746 mmHg 95%
    04:00 +13°C° 0 mm 5 mps 747 mmHg 94%
    05:00 +13°C° 0 mm 5 mps 747 mmHg 93%
    06:00 +13°C° 0 mm 5 mps 747 mmHg 92%
    07:00 +14°C° 0.1 mm 6 mps 747 mmHg 91%
    08:00 +14°C° 0.1 mm 6 mps 748 mmHg 90%
    09:00 +14°C° 0.1 mm 6 mps 748 mmHg 88%
    10:00 +14°C° 0.5 mm 6 mps 748 mmHg 89%
    11:00 +14°C° 0.5 mm 6 mps 748 mmHg 89%
    12:00 +15°C° 0.5 mm 5 mps 749 mmHg 90%
    13:00 +15°C° 0.3 mm 6 mps 749 mmHg 86%
    14:00 +15°C° 0.3 mm 6 mps 749 mmHg 81%
    15:00 +16°C° 0.3 mm 7 mps 749 mmHg 77%
    16:00 +15°C° 0.1 mm 7 mps 749 mmHg 77%
    17:00 +15°C° 0.1 mm 6 mps 749 mmHg 76%
    18:00 +14°C° 0.1 mm 6 mps 749 mmHg 76%
    19:00 +14°C° 0 mm 6 mps 749 mmHg 77%
    20:00 +13°C° 0 mm 6 mps 749 mmHg 77%
    21:00 +13°C° 0 mm 6 mps 750 mmHg 78%
    22:00 +13°C° 0 mm 6 mps 750 mmHg 79%
    23:00 +11°C° 0 mm 7 mps 750 mmHg 80%

    1 July, Monday

    Time Temperature Precipitation Wind Pressure Humidity
    00:00 +11°C° 0 mm 7 mps 750 mmHg 81%
    01:00 +11°C° 0 mm 7 mps 750 mmHg 80%
    02:00 +11°C° 0 mm 6 mps 750 mmHg 79%
    03:00 +11°C° 0 mm 6 mps 750 mmHg 77%
    04:00 +11°C° 0 mm 6 mps 751 mmHg 80%
    05:00 +11°C° 0 mm 6 mps 751 mmHg 83%
    06:00 +11°C° 0 mm 6 mps 751 mmHg 85%
    07:00 +13°C° 0.1 mm 6 mps 752 mmHg 84%
    08:00 +13°C° 0.1 mm 6 mps 752 mmHg 83%
    09:00 +14°C° 0.1 mm 6 mps 753 mmHg 82%
    10:00 +14°C° 0.1 mm 6 mps 754 mmHg 79%
    11:00 +14°C° 0.1 mm 6 mps 754 mmHg 76%
    12:00 +15°C° 0.1 mm 6 mps 755 mmHg 72%
    13:00 +15°C° 0 mm 6 mps 755 mmHg 71%
    14:00 +15°C° 0 mm 6 mps 756 mmHg 70%
    15:00 +15°C° 0 mm 5 mps 756 mmHg 69%
    16:00 +15°C° 0 mm 5 mps 756 mmHg 70%
    17:00 +14°C° 0 mm 5 mps 757 mmHg 71%
    18:00 +14°C° 0 mm 4 mps 757 mmHg 73%
    19:00 +13°C° 0 mm 3 mps 757 mmHg 79%
    20:00 +11°C° 0 mm 3 mps 758 mmHg 85%
    21:00 +10°C° 0 mm 2 mps 758 mmHg 91%
    22:00 +9°C° 0 mm 2 mps 758 mmHg 92%
    23:00 +8°C° 0 mm 2 mps 758 mmHg 94%

    2 July, Tuesday

    Time Temperature Precipitation Wind Pressure Humidity
    00:00 +8°C° 0 mm 2 mps 758 mmHg 95%
    01:00 +8°C° 0 mm 2 mps 758 mmHg 95%
    02:00 +7°C° 0 mm 2 mps 758 mmHg 96%
    03:00 +7°C° 0 mm 2 mps 758 mmHg 96%
    04:00 +8°C° 0 mm 2 mps 759 mmHg 95%
    05:00 +9°C° 0 mm 2 mps 759 mmHg 93%
    06:00 +9°C° 0 mm 2 mps 759 mmHg 92%
    07:00 +11°C° 0 mm 3 mps 759 mmHg 84%
    08:00 +12°C° 0 mm 3 mps 759 mmHg 76%
    09:00 +13°C° 0 mm 4 mps 760 mmHg 68%
    10:00 +14°C° 0 mm 4 mps 760 mmHg 68%
    11:00 +14°C° 0 mm 4 mps 760 mmHg 68%
    12:00 +14°C° 0 mm 4 mps 760 mmHg 68%
    13:00 +14°C° 0.1 mm 3 mps 760 mmHg 69%
    14:00 +14°C° 0.1 mm 3 mps 760 mmHg 71%
    15:00 +14°C° 0.1 mm 3 mps 760 mmHg 73%
    16:00 +14°C° 0.1 mm 3 mps 760 mmHg 74%
    17:00 +14°C° 0.1 mm 3 mps 760 mmHg 74%
    18:00 +14°C° 0.1 mm 3 mps 760 mmHg 75%
    19:00 +12°C° 0 mm 3 mps 760 mmHg 78%
    20:00 +12°C° 0 mm 2 mps 760 mmHg 81%
    21:00 +10°C° 0 mm 2 mps 760 mmHg 84%
    22:00 +9°C° 0 mm 2 mps 760 mmHg 87%
    23:00 +8°C° 0 mm 2 mps 760 mmHg 90%
    Show more